Miscellaneous Local Product
Issued by NWS Hastings, NE

Home | Current Version | Previous Version | Text Only | Print | Product List | Glossary On
Versions: 1 2 3 4 5 6 7 8 9 10 11 12 13 14 15 16 17 18 19 20 21 22 23 24 25 26 27 28 29 30 31 32 33 34 35 36 37 38 39 40 41 42 43 44 45 46 47 48 49 50
000
AXUS43 KGID 170102
MISGRI

GID CWA HOURLY WEATHER ROUNDUP
NATIONAL WEATHER SERVICE HASTINGS NE
800 PM CDT WED APR 16 2014

NOTE: "FAIR" INDICATES FEW OR NO CLOUDS BELOW 12,000 FEET WITH NO
SIGNIFICANT WEATHER AND/OR OBSTRUCTIONS TO VISIBILITY.

...SOUTH CENTRAL NEBRASKA...

CITY           SKY/WX    TMP DP  RH WIND       PRES   REMARKS
GRAND ISLAND   CLOUDY    38  27  64 N26       30.04R WCI  26
HASTINGS       PTCLDY    40  29  64 N20       30.02R WCI  30
KEARNEY        PTCLDY    39  30  70 N20       30.03R WCI  30
ORD            CLOUDY    34  26  72 N16G29    30.05R WCI  24
YORK           CLOUDY    39  28  65 NW18G31   30.01R WCI  30
AURORA         CLOUDY    40  30  67 N20G30    30.01R WCI  30
LEXINGTON      PTCLDY    43  32  64 N16       30.04R
HOLDREGE       MOCLDY    44  32  63 N22       30.01R
HEBRON         PTCLDY    44  32  61 N16G25    30.00R

...NEBRASKA PANHANDLE...

CITY           SKY/WX    TMP DP  RH WIND       PRES   REMARKS
CHADRON        PTCLDY    42  32  67 NE10      30.04R
ALLIANCE       CLEAR     40  31  70 NE13      30.03R WCI  32
SCOTTSBLUFF    PTCLDY    47  31  53 NE13      30.01R
SIDNEY         CLEAR     47  27  45 NE16      30.00R

...WESTERN AND NORTH CENTRAL NEBRASKA...

CITY           SKY/WX    TMP DP  RH WIND       PRES   REMARKS
VALENTINE      CLOUDY    31  25  78 N13       30.11R WCI  21
AINSWORTH      CLOUDY    32  27  80 N17G23    30.09R WCI  21
ONEILL         CLOUDY    33  26  73 N23G30    30.07R WCI  21
BROKEN BOW     CLOUDY    35  28  75 N21G29    30.05R WCI  24
IMPERIAL       MOCLDY    46  32  58 NE16      30.01R
NORTH PLATTE   MOCLDY    40  31  70 N20G26    30.04R WCI  30
MCCOOK         CLOUDY    50  33  52 N16       30.01R

...EASTERN NEBRASKA...

CITY           SKY/WX    TMP DP  RH WIND       PRES   REMARKS
NORFOLK        CLOUDY    37  27  67 NW28G35   29.98R WCI  25
SO SIOUX CITY  CLOUDY    36  31  82 NW28G38   29.92R WCI  23
TEKAMAH        CLOUDY    39  31  72 NW25G37   29.94R WCI  28
COLUMBUS       CLOUDY    37  25  60 NW18G35   30.01R WCI  27
ALBION         PTCLDY    36  26  68 N18G28    30.02R WCI  25
OMAHA EPPLEY   CLOUDY    40  31  70 NW25G35   29.93R WCI  29
OFFUTT AFB     MOCLDY    41  33  75 NW20G31   29.93R
MILLARD        MOCLDY    40  31  70 NW21G30   29.93R WCI  30
LINCOLN        PTCLDY    42  29  59 N22G31    29.99R
NEBRASKA CITY  PTCLDY    45  32  61 NW28      29.91R
BEATRICE       PTCLDY    44  31  61 N20G28    29.97R
FALLS CITY     CLOUDY    50  34  54 NW21G33   29.90

...NORTHERN KANSAS...

CITY           SKY/WX    TMP DP  RH WIND       PRES   REMARKS
GOODLAND       CLOUDY    49  32  52 NE14      30.02R
HILL CITY      CLOUDY    54  31  41 N13       29.99R
PHILLIPSBURG   CLEAR     52  34  50 N10       30.00R
SMITH CENTER   CLEAR     48  34  57 N14       30.00R
BELOIT         CLEAR     52  34  50 N14G22    29.97R
HAYS           CLOUDY    54  34  47 NE17      29.99R
RUSSELL        CLOUDY    54  34  46 N15       29.96R
CONCORDIA      MOCLDY    49  34  56 N16G23    29.98R
SALINA         MOCLDY    58  36  43 N24G33    29.94R
TOPEKA         CLOUDY    67  31  26 S9        29.85R



USA.gov is the U.S. government's official web portal to all federal, state and local government web resources and services.